Regional Weather Roundup
Issued by NWS Grand Forks, ND

Home | Current Version | Previous Version | Graphics & Text | Print | Product List | Glossary On
Versions: 1 2 3 4 5 6 7 8 9 10 11 12 13 14 15 16 17 18 19 20 21 22 23 24 25 26 27 28 29 30 31 32 33 34 35 36 37 38 39 40 41 42 43 44 45 46 47 48 49 50
000
ASUS43 KFGF 250231
RWRFGF
PRAIRIE TO PINES  WEATHER ROUNDUP
NATIONAL WEATHER SERVICE EASTERN NORTH DAKOTA/GRAND FORKS ND
900 PM CDT FRI APR 24 2015

 **SATELLITE DATA USED TO AUGMENT SKY COVER AT AUTOMATED STATIONS**
 *****  WEATHER ACROSS EASTERN NORTH DAKOTA  *****

CITY           SKY/WX    TMP DP  RH WIND       PRES   REMARKS
GRAND FORKS    CLOUDY    49  38  65 SE9       29.78R
GRAND FRKS AFB CLOUDY    49  38  67 S9        29.78R
GRAND FRKS NWS   N/A     46 N/A N/A SE6         N/A
DEVILS LAKE    CLEAR     48  37  66 E13G20    29.74R
FARGO          CLOUDY    47  39  74 E12       29.76R
WAHPETON ARPT  CLOUDY    45  39  81 E12       29.74R
$$

 ***** WEATHER ACROSS CENTRAL AND WESTERN NORTH DAKOTA  *****

CITY           SKY/WX    TMP DP  RH WIND       PRES   REMARKS
BISMARCK       CLEAR     56  41  57 E8        29.64R
MINOT          PTCLDY    53  35  50 NE8       29.67R
JAMESTOWN      CLOUDY    50  42  74 E14       29.69R
MINOT AFB      MOCLDY    55  38  53 E12       29.67R
GARRISON         N/A     56  38  50 E9        29.65R
WILLISTON      PTCLDY    61  33  35 E12       29.61S
DICKINSON      CLEAR     54  33  45 E8        29.62R
HETTINGER      CLEAR     51  33  50 E9        29.63R
$$

 *****  OTHER AIRPORT OBSERVATIONS IN OUR AREA  *****

CITY           SKY/WX    TMP DP  RH WIND       PRES   REMARKS
WALHALLA       CLOUDY    46  34  61 SE15      29.82R
GRAFTON AIRPOR MOCLDY    46  34  61 E13       29.81R
VALLEY CITY AR CLOUDY    46  45  93 E13       29.73R
CANDO          FAIR      45  36  70 E12       29.76R
CAVALIER APRT  CLOUDY    46  32  57 E12G22    29.82R
GWINNER        CLOUDY    48  43  81 E22       29.70R
SHEYENNE NWR     N/A     47  40  78 E14       29.95
ROLLA          FAIR      45  36  70 E13       29.77R
 ***** THE ABOVE OBSERVATIONS ARE NON NWS ARE NOT QUALITY
       CONTROLLED AND MAY MIS-REPORT RAIN FOR SNOW...
$$

  *****  WEATHER ACROSS NORTHERN MINNESOTA  *****

CITY           SKY/WX    TMP DP  RH WIND       PRES   REMARKS
FLAG ISLAND    CLOUDY    39  28  65 SE5       29.91R
WARROAD        CLOUDY    39  34  81 E9        29.90R
ROSEAU         CLOUDY    43  34  70 E12       29.87S
HALLOCK        CLOUDY    46  30  53 E12       29.83R
THF RVR FALLS  CLOUDY    45  32  61 E14G20    29.83R
BAUDETTE       CLOUDY    42  30  62 E15       29.88R
WASKISH        CLOUDY    43  30  61 CALM      29.87R
CROOKSTON      CLOUDY    46  36  66 SE12      29.80R
$$
  *****  WEATHER ACROSS CENTRAL AND WEST MINNESOTA  *****

CITY           SKY/WX    TMP DP  RH WIND       PRES   REMARKS
FOSSTON        CLOUDY    43  32  65 E7        29.82R
BEMIDJI        CLOUDY    41  31  66 E10G17    29.84R
PARK RAPIDS    CLOUDY    43  32  65 E12       29.81R
ELBOW LAKE     CLOUDY    43  41  93 E18       29.72F
WADENA         CLOUDY    43  34  70 E12       29.78S
DETROIT LAKES  CLOUDY    43  36  75 SE13G18   29.78S
MOORHEAD       CLOUDY    46  39  76 SE9       29.77R
FERGUS FALLS   CLOUDY    45  37  76 E14G20    29.75S
MORRIS MN      CLOUDY    45  43  93 E16G23    29.71R FOG
STAPLES        CLOUDY    43  32  65 E7        29.80S
$$
  *****  WEATHER ELSEWHERE ACROSS MINNESOTA  *****

CITY           SKY/WX    TMP DP  RH WIND       PRES   REMARKS
DULUTH         CLOUDY    36  23  59 E21       29.91S
INTRNTL FALLS  CLOUDY    41  20  43 E8        29.91R
ELY            CLOUDY    36  14  41 SE8       29.96R
CLOQUET        CLOUDY    37  25  60 E10       29.91R
WHEATON        CLOUDY    43  39  87 E18G24    29.73R
BRAINERD       CLOUDY    41  31  67 E10       29.83R
HIBBING        CLOUDY    38  22  52 SE10      29.91R
ALEXANDRIA     LGT RAIN  42  41  96 E15       29.76S FOG
SAINT CLOUD    CLOUDY    45  39  79 SE15G22   29.80R
MINNEAPOLIS    CLOUDY    44  41  89 E15G24    29.82R
$$

  *****  WEATHER ACROSS SOUTH DAKOTA  *****

CITY           SKY/WX    TMP DP  RH WIND       PRES   REMARKS
SIOUX FALLS    CLOUDY    57  48  72 E17G28    29.58R
BROOKINGS      CLOUDY    52  46  82 E13G24    29.62R
WATERTOWN      CLOUDY    47  43  86 E13G23    29.63R
HURON          CLOUDY    58  48  69 E23G31    29.54R THUNDER
SISSETON         N/A     48  43  82 SE21      29.67R
ABERDEEN       MOCLDY    51  44  77 NE10      29.61R
MITCHELL       TSTM      61  50  67 N21G31    29.52R
PIERRE         PTCLDY    63  46  54 NE17      29.51R
MOBRIDGE       CLEAR     60  45  57 E15       29.56R
RAPID CITY     CLOUDY    53  45  74 SE8       29.60R
$$

  *****  SOME WEATHER IN NEARBY STATES *****

CITY           SKY/WX    TMP DP  RH WIND       PRES   REMARKS
GLASGOW MT     MOCLDY    60  33  36 NW8       29.59R
GREAT FALLS MT LGT RAIN  42  40  92 S12       29.68S
CHEYENNE WY    MOCLDY    51  32  48 W10       29.67R
SCOTTSBLUFF NE CLOUDY    53  44  71 W3        29.60S
OMAHA NE       CLOUDY    59  53  80 SE13      29.54F
DES MOINES IA  CLOUDY    52  46  80 E10       29.67R
DAVENPORT IA   LGT RAIN  46  41  82 E18G30    29.80S
CHICAGO IL     LGT RAIN  42  35  76 E7        29.94R
EAU CLAIRE WI  CLOUDY    46  33  60 SE15      29.87S
LA CROSSE WI   LGT RAIN  46  40  79 VRB7      29.87R
$$

  *****  SOME NATIONAL WEATHER *****

CITY           SKY/WX    TMP DP  RH WIND       PRES   REMARKS
LA GUARDIA NY  CLEAR     42  21  43 N23G32    29.92S
RALEIGH NC     PTCLDY    52  36  54 CALM      29.98R
ATLANTA GA     CLOUDY    70  47  43 SW3       29.96S
NEW ORLEANS LA PTCLDY    73  68  84 SE7       29.85R
OKLAHOMA CITY  MOCLDY    64  59  83 S18G28    29.59S
ALBUQUERQUE NM MOCLDY    55  40  56 SE5       29.88R
SALT LAKE CITY LGT RAIN  54  45  71 SE10      29.69S
LOS ANGELES CA MOCLDY    60  51  72 W7        29.99F
BOISE ID       PTCLDY    56  28  34 N8        29.72S
SEATTLE WA     PTSUNNY   50  41  71 SE15      29.83S
$$

*** WEATHER ACROSS MANITOBA...SASKATCHEWAN AND ONTARIO ***
                ***ONTARIO***

CITY           SKY/WX    TMP DP  RH WIND       PRES   REMARKS
GERALDTON      CLEAR     32  14  47 N5        30.05R
THUNDER BAY    MOCLDY    34  23  64 E3        30.05R
SIOUX LOOKOUT  PTCLDY    34  18  51 VRB2      29.97R
TORONTO        CLEAR     34  23  64 N13       30.03R WCI  25
BIG TROUT LK   MOCLDY    23  16  74 CALM      30.10R
PICKLE LAKE    PTCLDY    32  16  51 E8        30.03R WCI  25
DRYDEN         CLOUDY    41  19  42 E3        29.95R
KENORA         CLOUDY    41  23  48 SE9       29.93R
$$
                *** MANITOBA***

CITY           SKY/WX    TMP DP  RH WIND       PRES   REMARKS
BRANDON        PTCLDY    50  36  57 SE12      29.78R
DAUPHIN        CLOUDY    50  32  50 E9        29.80R
ISLAND LAKE    PTCLDY    34  18  51 E8        30.01R
PILOT MOUND      N/A     45  34  65 E13         N/A
THE PAS        FLURRIES  28  25  86 N9G17     29.93R WCI  20
THOMPSON       LGT SNOW  25  23  93 NE10      30.02S WCI  15
WINNIPEG       MOCLDY    45  28  53 SE16G24   29.87R
LYNN LAKE      CLOUDY    28  14  54 E3        30.02R
CHURCHILL      PTCLDY    18  12  79 SE5       30.15R WCI  11
GILLAM         MOCLDY    25  10  54 E6        30.12R WCI  18
$$
                ***SASKATCHEWAN***

CITY           SKY/WX    TMP DP  RH WIND       PRES   REMARKS
ESTEVAN        MOCLDY    55  36  47 E10       29.67R
KINDERSLEY     MOCLDY    48  37  66 E15       29.67R
LLOYDMINSTER   CLOUDY    34  28  80 NE21      29.79R WCI  22
PRINCE ALBERT  FLURRIES  30  25  80 E15G22    29.87R WCI  19
REGINA         CLOUDY    52  32  46 E17G23    29.67R
YORKTON        PTCLDY    50  34  53 NE3       29.74R
N. BATTLEFORD  CLOUDY    36  30  80 NE17      29.80R
LA RONGE       PTCLDY    32  18  55 E9        29.95R WCI  24
SASKATOON      MOCLDY    39  28  65 NE20G28   29.76R
SWIFT CURRENT  CLEAR     50  34  53 E15       29.62R
$$
NOTE: THESE ARE AUTOMATED STATIONS WITH LIMITED QUALITY CONTROL
      "FAIR" INDICATES FEW OR NO CLOUDS BELOW 12,000 FEET WITH NO
      SIGNIFICANT WEATHER AND/OR OBSTRUCTIONS TO VISIBILITY.
      SKY/WX - SKY CONDITION AND SIGNIFICANT WEATHER.
      TMP - AIR TEMPERATURE.    DP   - DEWPOINT TEMPERATURE.
      RH  - RELATIVE HUMIDITY.  PRES - PRESSURE.
      HX  - HEAT INDEX.         WCI  - WIND CHILL INDEX.
$


USA.gov is the U.S. government's official web portal to all federal, state and local government web resources and services.